Weather History for Sparta, WI

Change the Weather History Date:

Tuesday, January 15, 2013

  Actual Average Record
Temperature  
Mean Temperature 15 °F -  
Max Temperature 32 °F 22 °F 45 °F (1952)
Min Temperature -2 °F 2 °F -43 °F (1963)
Degree Days  
Heating Degree Days 50    
Moisture  
Dew Point 7 °F    
Average Humidity 68    
Maximum Humidity 93    
Minimum Humidity 44    
Precipitation  
Precipitation 0.00 in - - ()
Sea Level Pressure  
Sea Level Pressure 30.22 in    
Wind  
Wind Speed 2 mph (SSW)    
Max Wind Speed 13 mph    
Max Gust Speed 18 mph    
Visibility 10 miles    
Events      
Averages and records for this station are not official NWS values.
T = Trace of Precipitation, MM = Missing Value Source: NWS Daily Summary

Daily Weather History Graph

Daily Weather History Graph

Search for Another Location

Airport:

Trip Planner

Search our weather history database for the weather conditions in past years. The results will help you decide how hot, cold, wet, or windy it might be!

Date:

Astronomy

Jan. 15, 2013 Rise Set
Actual Time 7:34 AM CST 4:51 PM CST
Civil Twilight 7:02 AM CST 5:23 PM CST
Nautical Twilight 6:26 AM CST 5:58 PM CST
Astronomical Twilight 5:52 AM CST 6:33 PM CST
Moon 9:29 AM CST (1/15) 9:53 PM CST (1/15)
Length of Visible Light 10h 21m
Length of Day
9h 17m
Waxing Crescent, 19% of the Moon is Illuminated
Jan 15
Waxing Crescent
Jan 18
First Quarter
Jan 26
Full
Feb 3
Last Quarter
Feb 10
New

Hourly Weather History & Observations

Time (CST) Temp. Windchill Dew Point Humidity Pressure Visibility Wind Dir Wind Speed Gust Speed Precip Events Conditions
12:15 AM 1.4 °F - -0.4 °F 92% 30.37 in 10.0 mi Calm Calm - N/A   Clear
12:35 AM 1.4 °F - -2.2 °F 85% 30.38 in 10.0 mi Calm Calm - N/A   Clear
12:55 AM 1.4 °F - -0.4 °F 92% 30.37 in 10.0 mi Calm Calm - N/A   Clear
1:15 AM 1.4 °F - -2.2 °F 85% 30.36 in 10.0 mi Calm Calm - N/A   Clear
1:35 AM -0.4 °F - -4.0 °F 85% 30.36 in 10.0 mi Calm Calm - N/A   Clear
1:55 AM 1.4 °F - -4.0 °F 78% 30.36 in 10.0 mi Calm Calm - N/A   Clear
2:15 AM 1.4 °F - -4.0 °F 78% 30.36 in 10.0 mi Calm Calm - N/A   Clear
2:35 AM -0.4 °F - -4.0 °F 85% 30.36 in 10.0 mi Calm Calm - N/A   Clear
2:55 AM -0.4 °F - -4.0 °F 85% 30.35 in 10.0 mi Calm Calm - N/A   Clear
3:15 AM -0.4 °F - -4.0 °F 85% 30.35 in 10.0 mi Calm Calm - N/A   Clear
3:35 AM -0.4 °F - -5.8 °F 78% 30.34 in 10.0 mi Calm Calm - N/A   Clear
3:55 AM -0.4 °F - -5.8 °F 78% 30.33 in 10.0 mi Calm Calm - N/A   Clear
4:15 AM -0.4 °F - -4.0 °F 85% 30.33 in 10.0 mi Calm Calm - N/A   Clear
4:55 AM -0.4 °F - -4.0 °F 85% 30.32 in 10.0 mi Calm Calm - N/A   Clear
5:15 AM -0.4 °F - -4.0 °F 85% 30.31 in 10.0 mi Calm Calm - N/A   Clear
5:35 AM -2.2 °F - -5.8 °F 85% 30.31 in 10.0 mi Calm Calm - N/A   Clear
5:55 AM -0.4 °F - -4.0 °F 85% 30.31 in 10.0 mi Calm Calm - N/A   Clear
6:15 AM -0.4 °F - -5.8 °F 78% 30.31 in 10.0 mi Calm Calm - N/A   Clear
6:35 AM -0.4 °F - -4.0 °F 85% 30.31 in 10.0 mi Calm Calm - N/A   Clear
6:55 AM -0.4 °F - -4.0 °F 85% 30.31 in 10.0 mi Calm Calm - N/A   Clear
7:15 AM 1.4 °F - -4.0 °F 78% 30.31 in 10.0 mi Calm Calm - N/A   Clear
7:35 AM 1.4 °F - -4.0 °F 78% 30.30 in 10.0 mi Calm Calm - N/A   Clear
7:55 AM 1.4 °F - -4.0 °F 78% 30.31 in 10.0 mi Calm Calm - N/A   Clear
8:15 AM 3.2 °F - 1.4 °F 92% 30.31 in 10.0 mi Calm Calm - N/A   Clear
8:35 AM 5.0 °F - 3.2 °F 92% 30.30 in 10.0 mi Calm Calm - N/A   Clear
8:55 AM 10.4 °F - 8.6 °F 92% 30.30 in 10.0 mi Calm Calm - N/A   Clear
9:15 AM 14.0 °F - 12.2 °F 93% 30.30 in 10.0 mi Calm Calm - N/A   Clear
9:35 AM 17.6 °F - 14.0 °F 86% 30.30 in 10.0 mi Calm Calm - N/A   Clear
9:55 AM 19.4 °F - 14.0 °F 80% 30.30 in 10.0 mi Calm Calm - N/A   Clear
10:15 AM 24.8 °F 17.9 °F 15.8 °F 69% 30.29 in 10.0 mi SW 5.8 mph - N/A   Clear
10:35 AM 26.6 °F 19.1 °F 14.0 °F 59% 30.28 in 10.0 mi SSW 6.9 mph - N/A   Clear
10:55 AM 28.4 °F 21.2 °F 12.2 °F 51% 30.27 in 10.0 mi SSW 6.9 mph - N/A   Clear
11:15 AM 28.4 °F 21.2 °F 12.2 °F 51% 30.27 in 10.0 mi SSW 6.9 mph - N/A   Clear
11:35 AM 28.4 °F 19.1 °F 12.2 °F 51% 30.26 in 10.0 mi SSW 10.4 mph - N/A   Clear
12:15 PM 30.2 °F 24.3 °F 12.2 °F 47% 30.24 in 10.0 mi SSW 5.8 mph - N/A   Clear
12:35 PM 30.2 °F 23.4 °F 12.2 °F 47% 30.23 in 10.0 mi SSW 6.9 mph - N/A   Clear
12:55 PM 32.0 °F 24.2 °F 12.2 °F 44% 30.22 in 10.0 mi SW 9.2 mph - N/A   Clear
1:15 PM 32.0 °F 24.8 °F 12.2 °F 44% 30.21 in 10.0 mi SW 8.1 mph - N/A   Clear
1:35 PM 32.0 °F 24.8 °F 12.2 °F 44% 30.20 in 10.0 mi SW 8.1 mph - N/A   Clear
1:55 PM 32.0 °F 23.6 °F 12.2 °F 44% 30.19 in 10.0 mi WSW 10.4 mph 16.1 mph N/A   Clear
2:15 PM 32.0 °F 22.5 °F 12.2 °F 44% 30.18 in 10.0 mi South 12.7 mph 16.1 mph N/A   Clear
2:35 PM 32.0 °F 24.8 °F 12.2 °F 44% 30.18 in 10.0 mi SW 8.1 mph - N/A   Clear
2:55 PM 32.0 °F 25.6 °F 12.2 °F 44% 30.18 in 10.0 mi SW 6.9 mph 18.4 mph N/A   Clear
3:15 PM 32.0 °F 24.2 °F 12.2 °F 44% 30.17 in 10.0 mi SW 9.2 mph 16.1 mph N/A   Clear
3:35 PM 32.0 °F 25.6 °F 14.0 °F 48% 30.17 in 10.0 mi SSW 6.9 mph - N/A   Clear
3:55 PM 32.0 °F 24.2 °F 14.0 °F 48% 30.17 in 10.0 mi SSW 9.2 mph - N/A   Clear
4:15 PM 30.2 °F 24.3 °F 14.0 °F 51% 30.17 in 10.0 mi SW 5.8 mph - N/A   Clear
4:35 PM 30.2 °F 26.7 °F 14.0 °F 51% 30.17 in 10.0 mi SSW 3.5 mph - N/A   Clear
4:55 PM 28.4 °F 22.2 °F 14.0 °F 55% 30.16 in 10.0 mi SSW 5.8 mph - N/A   Clear
5:35 PM 28.4 °F 21.2 °F 14.0 °F 55% 30.15 in 10.0 mi South 6.9 mph - N/A   Clear
5:55 PM 26.6 °F 20.0 °F 14.0 °F 59% 30.14 in 10.0 mi South 5.8 mph - N/A   Clear
6:15 PM 26.6 °F 20.0 °F 14.0 °F 59% 30.14 in 10.0 mi South 5.8 mph - N/A   Clear
6:35 PM 26.6 °F 20.0 °F 14.0 °F 59% 30.13 in 10.0 mi SSW 5.8 mph - N/A   Clear
6:55 PM 26.6 °F 19.1 °F 14.0 °F 59% 30.13 in 10.0 mi SSW 6.9 mph - N/A   Clear
7:15 PM 26.6 °F 20.0 °F 14.0 °F 59% 30.12 in 10.0 mi SSW 5.8 mph - N/A   Clear
7:35 PM 26.6 °F 21.2 °F 14.0 °F 59% 30.11 in 10.0 mi SSW 4.6 mph - N/A   Clear
7:55 PM 26.6 °F 22.6 °F 14.0 °F 59% 30.10 in 10.0 mi SSW 3.5 mph - N/A   Clear
8:15 PM 26.6 °F 22.6 °F 14.0 °F 59% 30.09 in 10.0 mi SSW 3.5 mph - N/A   Clear
8:35 PM 24.8 °F 20.5 °F 14.0 °F 64% 30.08 in 10.0 mi SSW 3.5 mph - N/A   Clear
8:55 PM 24.8 °F 17.9 °F 14.0 °F 64% 30.07 in 10.0 mi SW 5.8 mph - N/A   Clear
9:15 PM 24.8 °F 19.1 °F 14.0 °F 64% 30.06 in 10.0 mi SSW 4.6 mph - N/A   Clear
9:35 PM 24.8 °F 19.1 °F 14.0 °F 64% 30.05 in 10.0 mi SSW 4.6 mph - N/A   Clear
9:55 PM 24.8 °F 20.5 °F 14.0 °F 64% 30.04 in 10.0 mi SSW 3.5 mph - N/A   Clear
10:15 PM 23.0 °F 17.0 °F 14.0 °F 68% 30.04 in 10.0 mi SSW 4.6 mph - N/A   Clear
10:35 PM 23.0 °F 15.8 °F 14.0 °F 68% 30.02 in 10.0 mi SSW 5.8 mph - N/A   Clear
10:55 PM 23.0 °F 17.0 °F 12.2 °F 63% 30.02 in 10.0 mi SSW 4.6 mph - N/A   Clear
11:15 PM 23.0 °F 15.8 °F 12.2 °F 63% 30.01 in 10.0 mi SSW 5.8 mph - N/A   Clear
11:35 PM 23.0 °F 14.7 °F 12.2 °F 63% 29.99 in 10.0 mi South 6.9 mph - N/A   Clear